Regional Weather Roundup
Issued by NWS

Home | Current Version | Previous Version | Graphics & Text | Print | Product List | Glossary On
Versions: 1 2 3 4 5 6 7 8 9 10 11 12 13 14 15 16 17 18 19 20 21 22 23 24 25 26 27 28 29 30 31 32 33 34 35 36 37 38 39 40 41 42 43 44 45 46 47 48 49 50
000
ASUS43 KLMK 032110
RWRKY
KENTUCKY REGIONAL WEATHER ROUNDUP
NATIONAL WEATHER SERVICE LOUISVILLE KY
500 PM EDT MON AUG 03 2015

NOTE "FAIR" INDICATES FEW OR NO CLOUDS BELOW 12,000 FEET
WITH NO SIGNIFICANT WEATHER AND/OR OBSTRUCTIONS TO VISIBILITY.

KYZ001>023-026-027-061>063-070>075-032200-
WESTERN AND SOUTH CENTRAL KENTUCKY

CITY           SKY/WX    TMP DP  RH WIND       PRES   REMARKS
PADUCAH        MOSUNNY   94  70  45 W8        29.90R HX 100
HENDERSON      SUNNY     91  72  52 W8        29.87S HX  98
OWENSBORO      SUNNY     92  73  53 W12       29.88S HX 100
HOPKINSVILLE   SUNNY     91  73  54 W10       29.91S HX  99
BOWLING GREEN  MOSUNNY   94  69  44 W16       29.90R HX  99
GLASGOW        MOSUNNY  N/A N/A N/A SW8       29.90S
$$

KYZ024-025-028>034-038-045-046-053-032200-
NORTH CENTRAL KENTUCKY

CITY           SKY/WX    TMP DP  RH WIND       PRES   REMARKS
LOUISVILLE/SDF MOSUNNY   93  69  45 W17       29.84F HX  98
LOUISVILLE/LOU MOSUNNY   92  69  47 SW14      29.85F HX  97
FORT KNOX      MOSUNNY   90  69  49 SW14G23   29.86F HX  95
$$

KYZ035>037-039>044-047>052-055>060-089>105-032200-
NORTHEAST KENTUCKY

CITY           SKY/WX    TMP DP  RH WIND       PRES   REMARKS
LEXINGTON      SUNNY     88  68  51 W15       29.88S HX  91
COVINGTON      PTSUNNY   86  68  54 W9        29.86F
FRANKFORT      MOSUNNY   88  69  53 SW14      29.86F HX  92
$$

KYZ054-064>069-076>088-106>120-032200-
SOUTHEAST KENTUCKY

CITY           SKY/WX    TMP DP  RH WIND       PRES   REMARKS
JACKSON        SUNNY     85  68  56 VRB5      29.92F
LONDON         MOSUNNY   89  65  44 SW15      29.93F HX  91
SOMERSET       SUNNY     88  64  45 SW10G17   29.93S
MIDDLESBORO    SUNNY     88  66  48 S5        29.95F HX  90
MONTICELLO     CLEAR     90  73  57 SW8       29.95F HX  98
$$



USA.gov is the U.S. government's official web portal to all federal, state and local government web resources and services.